GLO2165 SBFL-SBCH

Flight info

Callsign GLO2165
Flight time N/A
Altitude 30000
Route NESMI UZ75 ESNOG DCT
Aircraft B738/M-SDFGIKLORWXY/LB1

Departure

Time 2026-04-08 14:07
Airport Hercílio Luz International Airport (SBFL)

Arrival

Time N/A
Airport Serafin Enoss Bertaso Airport (SBCH)
Time Latitude Longitude Altitude Speed Heading
2026-04-08 13:43 -27.67247 -48.54613 26 ft 0 kts 212°
2026-04-08 13:58 -27.67237 -48.54606 28 ft 4 kts 205°
2026-04-08 13:58 -27.67213 -48.54599 27 ft 4 kts 168°
2026-04-08 13:58 -27.67193 -48.54611 29 ft 2 kts 121°
2026-04-08 13:59 -27.67192 -48.54613 29 ft 1 kts 120°
2026-04-08 14:02 -27.67238 -48.54524 29 ft 10 kts 121°
2026-04-08 14:03 -27.67278 -48.54450 30 ft 7 kts 122°
2026-04-08 14:03 -27.67295 -48.54400 27 ft 6 kts 78°
2026-04-08 14:03 -27.67260 -48.54360 29 ft 8 kts 30°
2026-04-08 14:03 -27.67212 -48.54311 29 ft 11 kts 76°
2026-04-08 14:04 -27.67244 -48.54225 28 ft 14 kts 118°
2026-04-08 14:04 -27.67299 -48.54121 28 ft 17 kts 122°
2026-04-08 14:04 -27.67366 -48.54001 28 ft 19 kts 124°
2026-04-08 14:04 -27.67443 -48.53865 27 ft 22 kts 120°
2026-04-08 14:05 -27.67526 -48.53709 28 ft 24 kts 122°
2026-04-08 14:05 -27.67620 -48.53542 26 ft 26 kts 122°
2026-04-08 14:05 -27.67718 -48.53368 27 ft 24 kts 122°
2026-04-08 14:05 -27.67791 -48.53233 28 ft 17 kts 121°
2026-04-08 14:06 -27.67766 -48.53125 26 ft 17 kts 39°
2026-04-08 14:06 -27.67690 -48.53072 26 ft 9 kts 352°
2026-04-08 14:06 -27.67665 -48.53095 26 ft 3 kts 304°
2026-04-08 14:06 -27.67546 -48.53310 26 ft 68 kts 300°
2026-04-08 14:07 -27.67182 -48.53992 29 ft 131 kts 301°
2026-04-08 14:07 -27.66651 -48.54984 315 ft 157 kts 302°
2026-04-08 14:07 -27.66066 -48.56066 918 ft 164 kts 299°
2026-04-08 14:07 -27.65463 -48.57209 1300 ft 184 kts 297°
2026-04-08 14:08 -27.64766 -48.58535 1523 ft 209 kts 298°
2026-04-08 14:08 -27.63991 -48.59994 1903 ft 223 kts 299°
2026-04-08 14:08 -27.63156 -48.61562 2176 ft 242 kts 299°
2026-04-08 14:08 -27.62276 -48.63208 2940 ft 245 kts 298°
2026-04-08 14:09 -27.61406 -48.64830 3969 ft 238 kts 298°
2026-04-08 14:09 -27.60547 -48.66406 4934 ft 233 kts 297°
2026-04-08 14:09 -27.59695 -48.67966 5783 ft 234 kts 298°
2026-04-08 14:09 -27.58843 -48.69531 6589 ft 236 kts 298°
2026-04-08 14:10 -27.57974 -48.71127 7271 ft 241 kts 298°
2026-04-08 14:10 -27.57094 -48.72742 8095 ft 243 kts 299°
2026-04-08 14:10 -27.56205 -48.74375 8878 ft 248 kts 300°
2026-04-08 14:10 -27.55295 -48.76043 9710 ft 250 kts 300°
2026-04-08 14:11 -27.54377 -48.77726 10437 ft 256 kts 300°
2026-04-08 14:11 -27.53399 -48.79521 10628 ft 282 kts 300°
2026-04-08 14:11 -27.52516 -48.81584 10892 ft 301 kts 285°
2026-04-08 14:11 -27.52162 -48.83941 11384 ft 313 kts 279°
2026-04-08 14:12 -27.51912 -48.86369 11915 ft 320 kts 278°
2026-04-08 14:12 -27.51607 -48.88889 12608 ft 322 kts 280°
2026-04-08 14:12 -27.51220 -48.91373 13367 ft 322 kts 281°
2026-04-08 14:12 -27.50790 -48.93865 14067 ft 324 kts 282°
2026-04-08 14:13 -27.50357 -48.96390 14651 ft 330 kts 281°
2026-04-08 14:13 -27.49925 -48.98969 15222 ft 337 kts 281°
2026-04-08 14:13 -27.49500 -49.01578 15805 ft 342 kts 281°
2026-04-08 14:13 -27.49074 -49.04236 16413 ft 344 kts 281°
2026-04-08 14:14 -27.48652 -49.06902 17075 ft 347 kts 280°
2026-04-08 14:14 -27.47796 -49.12338 18232 ft 357 kts 280°
2026-04-08 14:14 -27.47371 -49.15047 18759 ft 360 kts 280°
2026-04-08 14:15 -27.46929 -49.17855 19312 ft 363 kts 280°
2026-04-08 14:15 -27.46487 -49.20672 19843 ft 367 kts 280°
2026-04-08 14:15 -27.46039 -49.23517 20368 ft 370 kts 281°
2026-04-08 14:15 -27.45587 -49.26381 20890 ft 374 kts 281°
2026-04-08 14:16 -27.45129 -49.29278 21435 ft 377 kts 281°
2026-04-08 14:16 -27.44668 -49.32195 21957 ft 381 kts 281°
2026-04-08 14:16 -27.44201 -49.35142 22443 ft 384 kts 281°
2026-04-08 14:16 -27.43728 -49.38119 22933 ft 388 kts 281°
2026-04-08 14:17 -27.43253 -49.41115 23412 ft 391 kts 281°
2026-04-08 14:17 -27.42771 -49.44147 23841 ft 394 kts 281°
2026-04-08 14:17 -27.42288 -49.47186 24301 ft 395 kts 281°
2026-04-08 14:17 -27.41802 -49.50232 24814 ft 395 kts 281°
2026-04-08 14:18 -27.41334 -49.53265 25492 ft 391 kts 280°
2026-04-08 14:18 -27.40954 -49.56268 26347 ft 382 kts 278°
2026-04-08 14:18 -27.40663 -49.59191 27012 ft 380 kts 278°
2026-04-08 14:18 -27.40393 -49.62185 27528 ft 381 kts 278°
2026-04-08 14:19 -27.40127 -49.65117 28046 ft 381 kts 278°
2026-04-08 14:19 -27.39845 -49.68086 28624 ft 380 kts 278°
2026-04-08 14:19 -27.39552 -49.71030 29213 ft 379 kts 278°
2026-04-08 14:19 -27.39253 -49.73965 29803 ft 377 kts 279°
2026-04-08 14:20 -27.38947 -49.76910 29903 ft 380 kts 279°
2026-04-08 14:20 -27.38335 -49.82760 29928 ft 373 kts 279°
2026-04-08 14:21 -27.37724 -49.88557 29948 ft 374 kts 279°
2026-04-08 14:21 -27.37110 -49.94380 29944 ft 375 kts 279°
2026-04-08 14:22 -27.36491 -50.00228 29949 ft 376 kts 279°
2026-04-08 14:22 -27.36359 -50.06117 29956 ft 377 kts 270°
2026-04-08 14:23 -27.36936 -50.11944 29943 ft 377 kts 266°
2026-04-08 14:23 -27.37675 -50.17772 29955 ft 375 kts 267°
2026-04-08 14:24 -27.38278 -50.23588 29953 ft 374 kts 268°
2026-04-08 14:24 -27.38799 -50.29406 29972 ft 374 kts 268°
2026-04-08 14:25 -27.39298 -50.35250 29973 ft 376 kts 268°
2026-04-08 14:25 -27.39796 -50.41108 29973 ft 376 kts 268°
2026-04-08 14:26 -27.40293 -50.46969 29983 ft 377 kts 268°
2026-04-08 14:26 -27.40790 -50.52848 29978 ft 377 kts 268°
2026-04-08 14:27 -27.41285 -50.58731 29978 ft 377 kts 268°
2026-04-08 14:27 -27.41590 -50.64561 29979 ft 373 kts 275°
2026-04-08 14:28 -27.40871 -50.70307 29993 ft 370 kts 283°
2026-04-08 14:28 -27.39873 -50.75985 29986 ft 369 kts 281°
2026-04-08 14:29 -27.39089 -50.81691 29989 ft 368 kts 280°
2026-04-08 14:29 -27.38353 -50.87382 29994 ft 367 kts 280°
2026-04-08 14:30 -27.37599 -50.93067 29990 ft 367 kts 280°
2026-04-08 14:30 -27.36842 -50.98747 29997 ft 367 kts 280°
2026-04-08 14:31 -27.36087 -51.04404 30006 ft 368 kts 280°
2026-04-08 14:31 -27.35325 -51.10102 30011 ft 369 kts 280°
2026-04-08 14:32 -27.34559 -51.15820 30003 ft 370 kts 280°
2026-04-08 14:32 -27.33788 -51.21548 30000 ft 370 kts 280°
2026-04-08 14:33 -27.33016 -51.27277 30004 ft 370 kts 280°
2026-04-08 14:33 -27.32245 -51.33001 30008 ft 370 kts 280°
2026-04-08 14:34 -27.31474 -51.38712 30012 ft 369 kts 279°
2026-04-08 14:34 -27.30702 -51.44405 30006 ft 368 kts 279°
2026-04-08 14:35 -27.29931 -51.50088 30000 ft 367 kts 279°
2026-04-08 14:35 -27.29157 -51.55764 30011 ft 368 kts 279°
2026-04-08 14:36 -27.28384 -51.61412 30021 ft 368 kts 279°
2026-04-08 14:36 -27.27607 -51.67079 29993 ft 361 kts 279°
2026-04-08 14:36 -27.27226 -51.69853 29707 ft 355 kts 279°
2026-04-08 14:37 -27.26853 -51.72564 29358 ft 350 kts 279°
2026-04-08 14:37 -27.26483 -51.75248 29022 ft 345 kts 279°
2026-04-08 14:37 -27.26115 -51.77909 28627 ft 342 kts 279°
2026-04-08 14:37 -27.25751 -51.80542 28242 ft 339 kts 279°
2026-04-08 14:38 -27.25389 -51.83156 27869 ft 336 kts 279°
2026-04-08 14:38 -27.25030 -51.85742 27490 ft 334 kts 279°
2026-04-08 14:38 -27.24674 -51.88306 27113 ft 331 kts 279°
2026-04-08 14:38 -27.24319 -51.90858 26740 ft 329 kts 279°
2026-04-08 14:39 -27.23968 -51.93385 26373 ft 326 kts 279°
2026-04-08 14:39 -27.23618 -51.95892 26014 ft 324 kts 278°
2026-04-08 14:39 -27.23271 -51.98381 25639 ft 322 kts 278°
2026-04-08 14:39 -27.22925 -52.00861 25288 ft 320 kts 278°
2026-04-08 14:40 -27.22584 -52.03296 24937 ft 318 kts 278°
2026-04-08 14:40 -27.22240 -52.05747 24551 ft 318 kts 278°
2026-04-08 14:40 -27.21895 -52.08192 24223 ft 315 kts 278°
2026-04-08 14:40 -27.21554 -52.10614 23890 ft 313 kts 278°
2026-04-08 14:41 -27.21214 -52.13028 23546 ft 312 kts 278°
2026-04-08 14:41 -27.20874 -52.15431 23147 ft 310 kts 278°
2026-04-08 14:41 -27.20536 -52.17818 22789 ft 307 kts 278°
2026-04-08 14:41 -27.20204 -52.20172 22455 ft 304 kts 278°
2026-04-08 14:42 -27.19985 -52.21717 22214 ft 302 kts 278°
2026-04-08 14:42 -27.19655 -52.24046 21882 ft 300 kts 278°
2026-04-08 14:42 -27.19327 -52.26356 21538 ft 298 kts 278°
2026-04-08 14:42 -27.19003 -52.28640 21214 ft 295 kts 278°
2026-04-08 14:43 -27.18679 -52.30913 20880 ft 293 kts 278°
2026-04-08 14:43 -27.18359 -52.33163 20551 ft 291 kts 277°
2026-04-08 14:43 -27.18040 -52.35404 20235 ft 289 kts 278°
2026-04-08 14:43 -27.17723 -52.37625 19912 ft 288 kts 278°
2026-04-08 14:44 -27.17406 -52.39843 19589 ft 287 kts 277°
2026-04-08 14:44 -27.17090 -52.42058 19276 ft 286 kts 277°
2026-04-08 14:44 -27.16775 -52.44257 18937 ft 285 kts 278°
2026-04-08 14:44 -27.16461 -52.46439 18629 ft 281 kts 277°
2026-04-08 14:45 -27.16027 -52.48553 18263 ft 277 kts 291°
2026-04-08 14:45 -27.14931 -52.50318 17736 ft 284 kts 308°
2026-04-08 14:45 -27.13402 -52.51764 17236 ft 290 kts 319°
2026-04-08 14:45 -27.11614 -52.52836 16789 ft 295 kts 331°
2026-04-08 14:46 -27.09680 -52.53640 16227 ft 293 kts 330°
2026-04-08 14:46 -27.07866 -52.54642 15631 ft 290 kts 324°
2026-04-08 14:46 -27.06108 -52.55740 15167 ft 287 kts 325°
2026-04-08 14:46 -27.04421 -52.56878 14758 ft 277 kts 313°
2026-04-08 14:47 -27.03273 -52.58508 14478 ft 260 kts 297°
2026-04-08 14:47 -27.02556 -52.60291 14387 ft 242 kts 283°
2026-04-08 14:47 -27.02214 -52.62076 14285 ft 228 kts 282°
2026-04-08 14:47 -27.01534 -52.63651 13942 ft 231 kts 309°
2026-04-08 14:48 -27.00143 -52.64605 13500 ft 244 kts 339°
2026-04-08 14:48 -26.98404 -52.64616 13073 ft 261 kts
2026-04-08 14:48 -26.96773 -52.63632 12628 ft 277 kts 36°
2026-04-08 14:48 -26.95403 -52.62102 12276 ft 278 kts 41°
2026-04-08 14:49 -26.94104 -52.60521 11912 ft 277 kts 41°
2026-04-08 14:49 -26.92803 -52.58920 11549 ft 276 kts 42°
2026-04-08 14:49 -26.91652 -52.57188 11172 ft 282 kts 60°
2026-04-08 14:49 -26.91167 -52.55048 10788 ft 286 kts 91°
2026-04-08 14:50 -26.91591 -52.52909 10453 ft 280 kts 122°
2026-04-08 14:50 -26.92790 -52.51266 10070 ft 269 kts 152°
2026-04-08 14:50 -26.94409 -52.50476 9769 ft 249 kts 179°
2026-04-08 14:50 -26.96069 -52.50532 9377 ft 233 kts 203°
2026-04-08 14:51 -26.97496 -52.51271 8984 ft 221 kts 224°
2026-04-08 14:51 -26.98569 -52.52458 8687 ft 213 kts 238°
2026-04-08 14:51 -26.99239 -52.53889 8328 ft 207 kts 256°
2026-04-08 14:51 -26.99498 -52.55484 7993 ft 208 kts 263°
2026-04-08 14:52 -26.99744 -52.57079 7664 ft 206 kts 260°
2026-04-08 14:52 -27.00024 -52.58642 7286 ft 201 kts 260°
2026-04-08 14:52 -27.00283 -52.60110 7154 ft 185 kts 261°
2026-04-08 14:52 -27.00523 -52.61523 6790 ft 184 kts 261°
2026-04-08 14:53 -27.00758 -52.62928 6384 ft 184 kts 261°
2026-04-08 14:53 -27.00993 -52.64355 5962 ft 185 kts 260°
2026-04-08 14:53 -27.01224 -52.65767 5621 ft 182 kts 260°
2026-04-08 14:53 -27.01427 -52.67171 5220 ft 183 kts 267°
2026-04-08 14:54 -27.01166 -52.68498 5102 ft 170 kts 285°
2026-04-08 14:54 -27.01146 -52.69763 4977 ft 161 kts 254°
2026-04-08 14:54 -27.01645 -52.70873 4933 ft 160 kts 238°
2026-04-08 14:54 -27.02226 -52.71887 4836 ft 148 kts 238°
2026-04-08 14:55 -27.02828 -52.72749 4815 ft 137 kts 232°
2026-04-08 14:55 -27.03522 -52.73494 4756 ft 138 kts 226°
2026-04-08 14:55 -27.04318 -52.74119 4690 ft 142 kts 216°
2026-04-08 14:55 -27.05220 -52.74615 4711 ft 146 kts 207°
2026-04-08 14:56 -27.06197 -52.74948 4703 ft 147 kts 199°
2026-04-08 14:56 -27.07217 -52.75101 4711 ft 149 kts 189°
2026-04-08 14:56 -27.08265 -52.75063 4603 ft 156 kts 180°
2026-04-08 14:56 -27.09331 -52.74805 4421 ft 150 kts 173°
2026-04-08 14:57 -27.10344 -52.74510 4043 ft 150 kts 173°
2026-04-08 14:57 -27.11330 -52.74193 3677 ft 151 kts 164°
2026-04-08 14:57 -27.12074 -52.73312 3338 ft 162 kts 122°
2026-04-08 14:57 -27.12427 -52.72113 3070 ft 161 kts 107°
2026-04-08 14:58 -27.12712 -52.70894 2834 ft 159 kts 104°
2026-04-08 14:58 -27.12910 -52.69652 2757 ft 157 kts 98°
2026-04-08 14:58 -27.13024 -52.68417 2475 ft 161 kts 98°
2026-04-08 14:58 -27.13197 -52.67195 2213 ft 153 kts 99°
2026-04-08 14:59 -27.13346 -52.66083 2128 ft 131 kts 99°
2026-04-08 14:59 -27.13450 -52.65309 2123 ft 70 kts 99°